Wind_Speed
16 16 16 16 15 16 17 17 17 17 17 17 18 18 19 19 19 19 20 20 19 20 20 20 20 20 20 20 20 20 20 21 21 21 21 20 20 20 20 20 21 22 22 23
18 17 17 17 16 17 18 18 18 18 17 18 19 20 20 21 20 20 20 20 21 21 21 21 22 22 22 21 21 21 21 21 22 22 22 22 22 21 21 21 22 23 23 24
20 19 20 19 18 19 19 20 19 19 19 20 20 21 21 21 21 22 22 22 22 22 22 22 23 23 23 23 22 22 22 22 22 22 23 23 23 23 23 23 23 24 24 25
21 21 22 20 20 20 21 21 21 21 20 21 21 21 22 22 23 22 23 23 23 23 24 24 24 24 24 24 24 24 23 23 23 23 23 24 24 24 25 25 25 25 25 25
23 23 22 21 20 21 22 22 22 22 22 22 23 23 23 24 24 24 25 25 25 25 25 25 25 26 26 26 26 26 25 25 25 25 25 25 25 25 26 27 27 27 27 27
25 24 23 21 21 22 22 22 22 23 23 24 24 25 24 25 25 25 25 26 26 26 25 25 26 26 27 27 27 27 27 27 27 27 27 27 27 27 28 28 29 29 29 28
25 25 24 23 23 23 23 23 24 24 24 25 25 26 26 27 27 27 28 28 27 27 27 27 27 27 27 27 28 28 28 28 28 28 28 28 28 29 29 29 29 29 30 30
26 26 25 24 25 25 25 25 25 25 25 26 26 27 28 28 28 29 29 29 28 28 28 29 29 28 28 28 28 28 28 28 29 29 29 29 29 29 30 30 30 30 30 31
27 26 26 26 27 27 27 27 27 27 27 27 27 28 29 29 30 30 29 30 30 30 30 30 30 29 29 29 29 29 29 29 30 30 31 30 30 30 31 31 31 31 31 32
27 27 27 28 28 29 29 29 29 28 28 28 28 29 30 30 30 30 30 30 30 30 30 31 31 31 30 31 31 30 30 30 31 31 31 31 31 31 31 31 32 32 32 32
28 28 28 29 30 30 30 30 29 29 29 29 30 30 31 31 31 31 31 31 31 32 32 32 32 32 32 32 32 32 32 32 32 32 32 32 32 33 33 33 33 33 33 34
28 28 29 30 30 30 30 30 30 30 30 30 31 31 31 31 31 31 32 32 32 32 32 33 33 33 33 33 33 33 33 33 33 33 33 33 33 34 34 34 34 34 34 34
30 30 30 30 31 31 31 31 30 30 31 31 31 32 31 31 31 32 32 32 32 33 33 34 34 34 34 34 34 34 34 34 34 34 35 34 34 34 35 35 35 35 35 35
30 31 31 31 32 32 32 32 31 31 31 32 32 32 32 33 33 34 34 33 33 34 34 34 34 34 34 34 34 34 34 34 34 35 36 36 36 36 36 36 36 36 36 36
31 32 33 32 32 32 32 32 32 32 32 33 33 33 34 34 34 34 34 34 35 34 34 34 34 34 34 35 35 35 35 35 36 36 36 36 37 37 37 37 37 37 37 37
31 32 33 32 32 32 32 33 33 33 33 33 33 34 35 35 35 35 35 36 36 36 35 35 35 35 35 36 36 36 36 37 37 37 37 37 37 37 37 37 37 37 37 38
32 31 31 31 31 31 32 32 33 34 34 34 34 35 36 35 36 36 36 37 37 37 36 36 36 37 37 37 37 37 37 37 38 38 37 37 37 37 37 37 37 37 37 37
31 31 31 32 32 33 33 33 33 34 34 35 36 36 36 36 36 37 37 38 38 37 37 37 38 38 38 38 38 38 38 38 38 38 38 38 38 38 37 37 37 37 37 38
29 30 31 32 33 33 34 34 34 35 35 36 37 37 37 37 37 38 38 38 38 38 38 38 38 38 38 39 39 39 39 39 39 39 39 39 39 39 38 38 38 38 37 37
29 30 31 31 32 33 34 34 35 35 36 37 37 38 37 37 37 38 39 39 39 39 39 39 39 39 39 39 39 39 39 39 39 39 39 39 39 38 39 38 38 38 37 37
29 29 30 31 32 33 33 34 35 36 37 37 38 37 37 37 38 38 39 39 39 39 38 38 38 38 38 38 38 38 38 38 39 39 39 38 38 38 38 38 38 37 37 37
29 29 30 31 32 33 34 34 35 36 36 37 38 37 37 38 38 39 39 39 38 38 38 37 37 37 37 37 37 37 37 38 38 37 37 37 37 36 37 37 37 37 37 38
31 31 31 32 32 33 34 34 35 36 36 36 37 37 37 38 38 39 39 39 39 38 37 37 36 37 37 37 36 35 35 36 36 36 36 36 36 36 36 36 36 36 36 36
32 32 32 32 33 33 33 34 35 35 35 35 36 37 38 38 38 38 39 38 38 38 37 36 37 36 36 35 34 34 34 35 35 35 36 36 36 36 36 36 36 36 35 35
32 32 33 33 33 34 35 35 35 35 35 35 35 36 37 37 37 37 38 38 38 37 37 36 35 35 34 34 34 35 35 35 36 36 36 36 36 36 36 36 36 36 35 35
32 33 33 34 34 35 35 35 35 35 35 35 36 36 36 37 37 37 37 37 37 36 35 35 35 34 34 34 35 35 36 36 36 36 36 35 36 36 36 36 35 35 35 34
33 33 34 34 35 36 36 35 35 35 36 36 36 36 36 36 36 36 36 35 35 35 34 34 34 34 34 34 35 35 34 34 35 35 35 35 36 36 35 35 35 34 34 34
Wind_Direction
268 270 271 272 273 276 277 281 283 284 286 288 290 290 290 289 288 287 287 287 288 286 284 284 283 282 281 281 281 280 279 278 278 278 279 278 277 278 280 280 278 278 279 278
269 271 272 271 271 273 274 279 283 284 287 289 290 290 290 290 288 287 287 287 287 287 285 284 282 281 280 280 280 281 281 281 280 279 279 278 277 278 279 280 280 279 279 278
269 271 272 270 271 272 275 278 281 283 283 286 289 291 292 290 290 289 288 287 288 288 286 285 283 281 280 280 280 280 280 280 280 279 278 277 277 278 279 279 280 280 280 279
270 272 272 275 273 273 275 277 280 282 283 286 289 292 292 291 289 288 288 288 287 287 286 284 283 281 279 279 279 279 279 279 279 279 278 277 277 278 278 278 278 279 280 280
270 271 273 274 276 276 276 277 279 282 283 285 287 290 290 290 289 289 288 287 288 288 287 284 282 280 279 278 278 278 278 278 278 278 278 278 277 278 279 279 279 278 278 279
271 273 275 276 277 277 278 279 281 284 285 285 286 287 289 288 287 288 287 287 288 289 287 285 283 282 280 279 278 277 277 277 277 277 278 277 277 278 278 279 279 279 277 277
272 273 276 278 278 280 280 282 283 284 286 286 286 288 288 288 288 288 288 288 289 288 287 285 284 283 282 281 279 278 277 277 277 277 278 278 278 278 278 278 279 279 278 277
272 273 277 278 279 280 283 284 285 285 286 285 286 287 288 289 289 289 289 289 290 289 287 285 284 284 283 282 281 280 278 278 278 278 278 279 279 279 278 278 279 278 279 278
272 274 275 277 278 280 282 283 285 285 286 286 285 285 287 288 289 289 288 289 289 288 287 287 285 284 283 282 281 280 280 279 279 279 279 278 278 278 278 278 278 279 278 278
272 274 275 276 278 279 280 281 281 283 283 284 284 284 285 288 290 290 288 288 288 287 286 285 284 284 283 282 282 281 280 280 280 280 279 279 278 278 278 279 279 279 278 279
273 274 275 276 278 280 280 281 281 281 281 281 283 285 286 287 289 290 289 288 288 287 286 285 284 283 283 283 281 281 281 281 281 280 280 279 278 278 278 279 279 279 278 278
273 275 277 279 280 280 280 281 281 282 283 284 285 286 287 288 289 289 289 288 289 288 287 286 284 283 283 282 282 282 281 280 280 281 281 280 280 279 279 280 280 279 278 279
273 275 278 280 280 280 281 282 282 283 284 285 286 287 287 288 289 289 290 290 290 290 289 288 287 285 285 283 284 284 284 283 281 281 281 281 281 281 281 281 281 281 280 279
274 277 278 279 279 280 281 281 283 284 284 285 286 286 287 288 290 290 290 291 291 290 289 288 288 287 286 285 285 285 285 285 285 284 283 282 282 282 282 282 282 281 280 280
275 277 279 280 280 280 280 280 282 283 283 284 285 286 286 288 289 291 291 291 291 290 289 289 288 287 286 285 285 285 285 285 285 285 285 285 284 283 283 283 283 282 280 280
275 277 278 279 279 279 279 279 280 282 283 283 284 286 287 289 289 290 290 290 291 290 288 288 288 286 285 284 284 285 285 285 285 286 286 286 286 285 285 285 284 283 282 281
276 276 277 278 277 278 278 279 280 282 283 284 284 286 287 288 289 290 290 291 291 290 289 288 287 285 285 285 284 284 284 285 285 285 285 285 285 285 285 285 284 284 283 282
276 276 276 277 278 278 279 280 281 282 283 284 284 285 287 288 288 289 290 291 291 290 289 288 286 285 285 285 285 285 285 285 286 285 283 284 284 284 285 285 284 284 284 282
276 276 276 278 279 279 280 281 282 283 284 285 285 286 288 288 288 288 289 290 291 290 288 287 286 286 285 285 284 284 284 285 286 286 284 283 283 283 283 283 285 285 285 284
280 279 280 280 281 281 281 281 282 283 284 285 286 286 287 288 288 289 290 291 292 291 289 288 287 286 286 285 284 284 284 285 286 286 284 282 282 283 283 283 284 285 285 285
281 281 281 280 282 283 283 283 283 284 284 285 286 287 287 288 288 289 290 291 292 292 291 290 289 288 287 287 286 285 285 285 285 285 284 282 282 282 283 283 284 285 285 284
280 281 282 283 284 285 286 286 286 286 286 285 286 286 287 288 289 289 290 292 293 293 292 290 289 289 288 288 287 286 286 285 285 285 284 283 284 283 284 284 285 285 285 284
280 282 283 285 286 287 288 288 289 289 288 288 287 287 288 290 290 291 292 292 293 294 294 292 291 291 290 289 288 288 287 287 286 285 284 284 284 284 284 284 285 286 286 285
281 282 284 285 287 288 289 290 291 291 290 290 289 290 291 291 292 292 293 293 294 294 294 293 292 292 290 289 288 288 288 288 287 286 285 285 285 284 284 285 285 285 285 285
282 283 285 286 288 289 290 290 291 291 291 291 291 291 292 293 294 294 295 295 295 295 294 293 292 291 289 288 288 288 288 288 288 288 287 286 286 285 285 285 285 285 285 285
282 285 286 288 289 290 291 290 290 290 290 290 291 292 294 294 295 295 296 295 295 296 295 294 293 291 289 289 289 289 289 289 289 288 288 287 287 287 286 285 285 285 285 284
283 285 287 288 289 289 290 290 290 290 291 291 293 294 295 296 297 297 297 297 297 297 296 295 294 292 291 291 291 291 292 293 291 290 289 289 289 289 287 286 285 284 284 284
Height
5820 5820 5820 5821 5821 5821 5820 5820 5820 5820 5819 5818 5817 5816 5815 5813 5812 5811 5810 5809 5807 5806 5805 5804 5802 5801 5800 5798 5797 5796 5795 5795 5794 5793 5792 5791 5790 5789 5789 5788 5787 5786 5785 5784
5816 5816 5816 5816 5817 5816 5816 5815 5815 5815 5815 5814 5812 5811 5810 5808 5807 5806 5804 5803 5802 5800 5799 5798 5796 5795 5794 5792 5791 5790 5789 5788 5787 5786 5786 5785 5784 5783 5783 5782 5781 5780 5779 5777
5811 5811 5810 5811 5812 5811 5811 5811 5810 5810 5810 5808 5807 5805 5804 5803 5801 5800 5798 5797 5795 5794 5792 5791 5790 5788 5787 5786 5785 5784 5783 5782 5781 5780 5779 5778 5777 5777 5776 5775 5774 5773 5772 5770
5805 5806 5805 5809 5807 5806 5806 5805 5805 5804 5803 5802 5801 5800 5798 5797 5795 5794 5792 5791 5789 5787 5786 5784 5782 5781 5780 5779 5778 5777 5776 5775 5774 5773 5772 5771 5770 5770 5769 5768 5767 5766 5764 5763
5799 5799 5799 5802 5801 5800 5800 5799 5799 5798 5797 5796 5795 5794 5793 5791 5789 5787 5786 5784 5782 5780 5778 5777 5775 5774 5772 5771 5770 5769 5768 5767 5766 5765 5765 5764 5763 5762 5761 5760 5759 5758 5757 5755
5793 5793 5793 5796 5795 5793 5794 5793 5793 5792 5791 5790 5789 5788 5787 5784 5782 5780 5778 5776 5775 5773 5771 5769 5768 5766 5765 5763 5762 5761 5761 5760 5758 5757 5757 5756 5755 5754 5753 5752 5751 5749 5748 5747
5787 5786 5787 5788 5787 5787 5788 5788 5786 5785 5784 5783 5782 5781 5779 5777 5775 5773 5771 5769 5767 5765 5763 5761 5760 5758 5757 5755 5754 5753 5752 5751 5750 5749 5748 5747 5746 5745 5744 5743 5742 5741 5740 5738
5780 5780 5783 5781 5780 5781 5780 5779 5778 5777 5776 5776 5774 5773 5771 5769 5767 5765 5763 5761 5759 5757 5755 5753 5751 5750 5748 5747 5746 5744 5743 5742 5741 5740 5739 5738 5737 5736 5735 5734 5732 5731 5730 5729
5774 5775 5774 5774 5773 5773 5772 5771 5771 5770 5769 5768 5767 5765 5763 5761 5759 5757 5755 5753 5751 5749 5747 5745 5743 5741 5740 5738 5737 5735 5734 5733 5732 5731 5730 5728 5727 5726 5725 5724 5723 5721 5720 5719
5766 5767 5766 5766 5765 5765 5765 5764 5763 5762 5761 5760 5759 5757 5755 5753 5751 5749 5747 5744 5742 5740 5738 5736 5734 5732 5731 5729 5728 5726 5725 5724 5723 5721 5720 5719 5718 5716 5715 5714 5713 5711 5710 5708
5759 5759 5759 5758 5758 5757 5757 5756 5755 5754 5753 5751 5750 5748 5746 5744 5742 5740 5737 5735 5733 5731 5729 5727 5724 5723 5721 5720 5718 5717 5715 5714 5713 5711 5710 5709 5708 5706 5705 5704 5702 5701 5699 5698
5751 5751 5751 5750 5750 5749 5748 5747 5746 5745 5744 5742 5741 5739 5737 5735 5733 5730 5728 5725 5723 5721 5719 5717 5715 5713 5711 5709 5708 5706 5705 5704 5702 5701 5700 5698 5697 5696 5694 5693 5691 5689 5688 5687
5743 5742 5742 5741 5741 5740 5739 5738 5737 5736 5734 5733 5731 5729 5727 5725 5723 5721 5718 5716 5713 5711 5709 5707 5704 5702 5700 5698 5697 5696 5694 5693 5691 5690 5689 5687 5686 5685 5683 5682 5680 5678 5677 5675
5733 5733 5732 5732 5731 5730 5729 5728 5727 5726 5725 5723 5721 5720 5718 5716 5714 5711 5708 5706 5703 5700 5698 5696 5694 5692 5690 5688 5686 5685 5683 5682 5681 5679 5678 5676 5675 5674 5672 5670 5669 5666 5664 5663
5724 5723 5723 5722 5722 5721 5719 5718 5717 5717 5715 5714 5712 5710 5708 5706 5703 5701 5698 5695 5693 5690 5687 5685 5683 5681 5679 5677 5676 5674 5673 5671 5670 5668 5666 5665 5663 5661 5660 5658 5657 5655 5653 5651
5714 5713 5713 5712 5712 5711 5710 5709 5708 5707 5705 5704 5702 5700 5698 5695 5693 5690 5688 5685 5682 5679 5676 5674 5672 5670 5668 5666 5665 5663 5662 5660 5658 5656 5655 5653 5651 5649 5648 5646 5645 5643 5641 5639
5705 5704 5704 5703 5702 5701 5700 5699 5698 5696 5695 5693 5692 5690 5687 5685 5682 5680 5677 5674 5671 5668 5665 5663 5661 5659 5656 5654 5653 5651 5649 5647 5646 5644 5642 5641 5639 5637 5636 5634 5633 5631 5629 5626
5696 5695 5694 5694 5693 5692 5691 5689 5688 5686 5685 5683 5681 5679 5676 5674 5672 5669 5666 5663 5660 5657 5654 5651 5649 5647 5644 5642 5640 5639 5637 5635 5633 5631 5630 5628 5627 5625 5624 5622 5620 5618 5616 5614
5686 5686 5685 5684 5683 5682 5680 5679 5677 5676 5674 5672 5670 5668 5665 5663 5660 5658 5655 5652 5649 5646 5643 5639 5637 5634 5632 5630 5628 5626 5624 5622 5620 5619 5617 5615 5614 5612 5611 5609 5607 5606 5603 5601
5677 5677 5675 5674 5673 5672 5670 5669 5667 5665 5663 5661 5659 5657 5654 5652 5649 5646 5643 5640 5636 5633 5630 5627 5624 5622 5619 5617 5615 5613 5611 5609 5607 5605 5604 5602 5601 5599 5598 5596 5594 5592 5590 5588
5669 5668 5666 5665 5663 5662 5660 5658 5657 5655 5652 5650 5648 5645 5643 5640 5637 5634 5631 5628 5625 5621 5617 5615 5612 5609 5606 5604 5602 5600 5598 5596 5594 5592 5591 5589 5588 5586 5585 5583 5581 5579 5578 5576
5660 5659 5657 5656 5655 5653 5650 5648 5646 5644 5641 5639 5637 5634 5632 5629 5626 5623 5619 5616 5613 5609 5605 5602 5599 5596 5594 5592 5589 5587 5585 5583 5581 5579 5578 5576 5575 5573 5572 5570 5569 5567 5565 5563
5651 5650 5648 5647 5645 5643 5641 5638 5636 5634 5631 5628 5626 5623 5621 5618 5614 5611 5608 5604 5600 5597 5593 5590 5587 5584 5582 5580 5577 5575 5573 5571 5569 5567 5566 5564 5563 5561 5560 5558 5556 5554 5552 5550
5642 5640 5639 5637 5636 5633 5631 5629 5626 5623 5621 5618 5615 5613 5610 5607 5603 5600 5596 5592 5589 5585 5582 5578 5575 5573 5570 5568 5567 5565 5563 5560 5558 5557 5555 5553 5551 5549 5547 5546 5544 5542 5540 5538
5632 5631 5629 5627 5626 5624 5621 5619 5616 5614 5611 5608 5605 5602 5599 5595 5592 5589 5585 5581 5578 5574 5571 5568 5565 5562 5560 5558 5556 5554 5552 5550 5548 5546 5544 5541 5539 5537 5536 5534 5532 5530 5529 5527
5622 5621 5619 5617 5615 5613 5611 5609 5606 5603 5601 5598 5595 5592 5589 5585 5582 5578 5574 5571 5567 5564 5561 5558 5555 5552 5550 5548 5546 5543 5541 5539 5536 5534 5532 5530 5528 5525 5523 5522 5520 5518 5517 5515
5612 5610 5609 5607 5605 5602 5600 5598 5596 5593 5590 5588 5585 5581 5578 5574 5571 5567 5564 5561 5557 5554 5551 5548 5545 5542 5540 5538 5535 5532 5530 5527 5525 5523 5520 5518 5516 5514 5512 5510 5508 5507 5505 5503